TimeMDT,TemperatureF,Dew PointF,Humidity,Sea Level PressureIn,VisibilityMPH,Wind Direction,Wind SpeedMPH,Gust SpeedMPH,PrecipitationIn,Events,Conditions,WindDirDegrees,DateUTC
12:53 AM,7.0,1.0,77,30.39,10.0,NW,13.8,-,N/A,,Clear,310,2013-03-25 06:53:00
1:53 AM,3.9,-0.9,80,30.40,10.0,NW,13.8,-,N/A,,Clear,320,2013-03-25 07:53:00
2:53 AM,3.9,-0.9,80,30.40,10.0,WNW,12.7,-,N/A,,Clear,290,2013-03-25 08:53:00
3:53 AM,3.0,-2.0,80,30.40,10.0,NW,13.8,-,N/A,,Clear,310,2013-03-25 09:53:00
4:53 AM,3.0,-2.0,80,30.41,10.0,WNW,11.5,-,N/A,,Clear,300,2013-03-25 10:53:00
5:53 AM,1.9,-2.9,80,30.42,10.0,NW,12.7,-,N/A,,Clear,310,2013-03-25 11:53:00
6:53 AM,3.0,-2.0,80,30.45,10.0,WNW,12.7,-,N/A,,Clear,300,2013-03-25 12:53:00
7:53 AM,3.9,-0.9,80,30.45,10.0,WNW,13.8,-,N/A,,Clear,300,2013-03-25 13:53:00
8:53 AM,8.1,1.9,76,30.47,10.0,WNW,15.0,-,N/A,,Clear,300,2013-03-25 14:53:00
9:53 AM,10.9,5.0,77,30.49,10.0,NW,12.7,-,N/A,,Clear,310,2013-03-25 15:53:00
10:53 AM,15.1,8.1,74,30.50,10.0,NW,11.5,-,N/A,,Clear,310,2013-03-25 16:53:00
11:53 AM,18.0,10.0,71,30.49,10.0,NW,12.7,-,N/A,,Clear,310,2013-03-25 17:53:00
12:53 PM,21.0,12.0,68,30.47,10.0,NW,16.1,-,N/A,,Clear,310,2013-03-25 18:53:00
1:53 PM,21.9,12.0,66,30.46,10.0,NW,16.1,-,N/A,,Clear,310,2013-03-25 19:53:00
2:53 PM,23.0,12.9,65,30.45,10.0,NW,13.8,-,N/A,,Clear,320,2013-03-25 20:53:00
3:53 PM,24.1,14.0,65,30.43,10.0,NNW,15.0,-,N/A,,Clear,330,2013-03-25 21:53:00
4:53 PM,24.1,15.1,69,30.43,10.0,NW,8.1,-,N/A,,Clear,320,2013-03-25 22:53:00
5:53 PM,21.9,15.1,75,30.44,10.0,West,8.1,-,N/A,,Clear,280,2013-03-25 23:53:00
6:53 PM,19.9,12.9,74,30.44,10.0,West,6.9,-,N/A,,Clear,280,2013-03-26 00:53:00
7:53 PM,16.0,10.9,81,30.45,10.0,West,9.2,-,N/A,,Clear,270,2013-03-26 01:53:00
8:53 PM,15.1,8.1,74,30.45,10.0,West,10.4,-,N/A,,Clear,260,2013-03-26 02:53:00
9:53 PM,10.0,3.9,76,30.47,10.0,West,8.1,-,N/A,,Clear,260,2013-03-26 03:53:00
10:53 PM,9.0,3.0,77,30.46,10.0,WSW,9.2,-,N/A,,Clear,250,2013-03-26 04:53:00
11:53 PM,9.0,1.9,73,30.45,10.0,WSW,11.5,-,N/A,,Clear,240,2013-03-26 05:53:00